AirNav   Jet Aviation Boston
 
 1613 users online  

KRYW Lago Vista TX - Rusty Allen Airport
Lago Vista, Texas, USA

GOING TO LAGO VISTA?


FAA INFORMATION EFFECTIVE 21 JUNE 2018

Location

FAA Identifier: RYW
Lat/Long: 30-29-54.9000N / 097-58-10.1000W
30-29.915000N / 097-58.168333W
30.4985833 / -97.9694722
(estimated)
Elevation: 1230.4 ft. / 375.0 m (surveyed)
Variation: 04E (2020)
From city: 2 miles NE of LAGO VISTA, TX
Time zone: UTC -5 (UTC -6 during Standard Time)
Zip code: 78645

Airport Operations

Airport use: Open to the public
Activation date: 09/1973
Control tower: no
ARTCC: HOUSTON CENTER
FSS: SAN ANGELO FLIGHT SERVICE STATION
NOTAMs facility: RYW (NOTAM-D service available)
Attendance: 0800-1800
Wind indicator: lighted
Segmented circle: no
Lights: DUSK-DAWN. MIRL RY 15/33 PRESET LOW INTST; TO INCR INTST ACTVT - CTAF. PAPI RYS 15 & 33 OPER CONT.
Beacon: white-green (lighted land airport)
Operates sunset to sunrise.

Airport Communications

CTAF/UNICOM: 122.725
WX ASOS: 119.375 (512-267-1365)
AUSTIN APPROACH: 119.0 [1300-0500Z++ MON-THU; 1300-2200Z++ FRI; CLSD SAT, SUN AND HOL BY NOTAM. HRS SUBJECT TO CHG IN SUPPORT OF TRAWING-2 FLT OPR]
AUSTIN DEPARTURE: 119.0 [1300-0500Z++ MON-THU; 1300-2200Z++ FRI; CLSD SAT, SUN AND HOL BY NOTAM. HRS SUBJECT TO CHG IN SUPPORT OF TRAWING-2 FLT OPR]
AEROZ DP: 119.0
BNDIA DP: 119.0
ELOEL DP: 119.0
ILEXY DP: 119.0
MSTLO STAR: 127.225
MUCKY DP: 119.0
POTTR STAR: 127.225
SAYBR DP: 119.0
WX AWOS-3PT at GTU (18 nm NE): PHONE 512-869-3430

Nearby radio navigation aids

VOR radial/distance  VOR name  Freq  Var
CWKr282/23.9CENTEX VORTAC112.8006E
GRKr190/33.0GRAY VOR/DME111.8004E

Airport Services

Fuel available: 100LL
Parking: tiedowns

Runway Information

Runway 15/33

Dimensions: 3808 x 50 ft. / 1161 x 15 m
Surface: asphalt, in excellent condition
Weight bearing capacity: 
Single wheel: 12.5, GWT PER ARPT MGR.
Runway edge lights: medium intensity
RUNWAY 15  RUNWAY 33
Latitude: 30-30.212715N30-29.617755N
Longitude: 097-58.283938W097-58.051307W
Elevation: 1230.4 ft.1209.3 ft.
Traffic pattern: leftleft
Runway heading: 157 magnetic, 161 true337 magnetic, 341 true
Declared distances: TORA:3808 TODA:3808 ASDA:3808 LDA:3808TORA:3808 TODA:3808 ASDA:3808 LDA:3808
Markings: nonprecision, in good conditionnonprecision, in good condition
Visual slope indicator: 2-light PAPI on left (4.00 degrees glide path)2-light PAPI on left (3.50 degrees glide path)
Touchdown point: yes, no lightsyes, no lights
Obstructions: 20 ft. trees, 200 ft. from runway, 125 ft. both sides of centerline
+20 FT TREES 0-200 FT FM RY END 125 FT L & R.
10 ft. pline, marked, 200 ft. from runway, 234 ft. left of centerline
+14 FT HANGARS AT THLD TO 104 FT FM THLD - 159 FT L & +15 FT HANGAR 223 FT R FM 127 FT TO 187 FT FM THLD.

Airport Ownership and Management from official FAA records

Ownership: Publicly-owned
Owner: CITY OF LAGO VISTA
5803 THUNDERBIRD DR
LAGO VISTA, TX 78645
Phone 512-267-1155
Manager: ROY JAMBOR
CITY OF LAGO VISTA, 5803 THUNDERBIRD
LAGO VISTA, TX 78645
Phone (512) 527-3540

Airport Operational Statistics

Aircraft based on the field: 81
Single engine airplanes: 66
Multi engine airplanes: 8
Jet airplanes: 2
Helicopters: 3
Ultralights: 2
    
Aircraft operations: avg 104/day *
75% local general aviation
25% transient general aviation
* for 12-month period ending 06 October 2016

Additional Remarks

DEER (SEASONAL) ON & INVOF RYS AND TWYS.
UNICOM NOT MONITORED.
FOR CD CTC AUS APCH AT 512-369-7865.
CALM WIND RWY I5.

Instrument Procedures

NOTE: All procedures below are presented as PDF files. If you need a reader for these files, you should download the free Adobe Reader.

NOT FOR NAVIGATION. Please procure official charts for flight.
FAA instrument procedures published for use from 21 June 2018 at 0901Z to 19 July 2018 at 0900Z.

 
STARs - Standard Terminal Arrivals
BITER SEVEN   download (282KB)
BLEWE FOUR   download (172KB)
MSTLO TWO (RNAV)   download (108KB)
POTRR ONE (RNAV)   download (142KB)
 
IAPs - Instrument Approach Procedures
RNAV (GPS) RWY 15   download (238KB)
 
Departure Procedures
AEROZ ONE (RNAV)   download (135KB)
BNDIA TWO (RNAV)   download (117KB)
ELOEL TWO (RNAV)   download (141KB)
ILEXY TWO (RNAV)   download (153KB)
MUCKY TWO (RNAV)   download (115KB)
SAYBR TWO (RNAV)   download (124KB)
NOTE: Special Take-Off Minimums/Departure Procedures apply   download (504KB)

Other nearby airports with instrument procedures:

3R9 - Lakeway Airpark (9 nm S)
KGTU - Georgetown Municipal Airport (18 nm NE)
KBMQ - Burnet Municipal Airport-Kate Craddock Field (20 nm NW)
KEDC - Austin Executive Airport (22 nm E)
KAUS - Austin-Bergstrom International Airport (24 nm SE)
 
Loc | Ops | Rwys | IFR | FBO | Links
Com | Nav | Svcs | Stats | Notes


 
Area around KRYW (Lago Vista TX - Rusty Allen Airport)
 
Road maps at: MapQuest Bing Google
 
Aerial photo
WARNING: Photo may not be current or correct
Aerial photo of KRYW (Lago Vista TX - Rusty Allen Airport)
Photo by Mike Mee
Taken in March 2016
looking southeast.

Do you have a better or more recent aerial photo of Lago Vista TX - Rusty Allen Airport that you would like to share? If so, please send us your photo.

 
Sectional chart

 
Airport distance calculator
Flying to Lago Vista TX - Rusty Allen Airport? Find the distance to fly.

From to KRYW

Sunrise and sunset
Times for 18-Jul-2018
 Local
(UTC-5)
 Zulu
(UTC)
Morning civil twilight06:1611:16
Sunrise06:4311:43
Sunset20:3401:34
Evening civil twilight21:0002:00

Current date and time
Zulu (UTC)  18-Jul-2018 18:14:28
Local (UTC-5)  18-Jul-2018 13:14:28
 
METAR
KRYW 181755Z AUTO 20006KT 10SM CLR 35/16 A3003 RMK AO2 T03520155 10353 20250
KATT 
18nm SE 
181751Z AUTO 00000KT 10SM CLR 36/18 A3000 RMK AO2 SLP143 T03610183 10361 20256 58010
KGTU 
19nm NE 
181756Z 19009KT 10SM CLR 36/18 A3001 RMK AO2 SLP152 T03610183 10361 20250 58012
KAUS 
19nm SE 
181753Z 20009KT 10SM FEW250 36/19 A2999 RMK AO2 SLP142 T03560189 10356 20244 58010
KBMQ 
20nm NW 
181753Z AUTO VRB04KT 10SM CLR 36/17 A3003 RMK AO2 SLP146 T03610167 10361 20239 58011 $
TAF
KAUS 
19nm SE 
181726Z 1818/1924 18010KT P6SM SCT250
NOTAMs
Click for the latest NOTAMs
NOTAMs are issued by the DoD/FAA and will open in a separate window not controlled by AirNav.

 

 
 

FBO, Fuel Providers, and Aircraft Ground Support

  
 Business Name 
 
 Contact 
 
 Services / Description 
 
Fuel Prices
 
Comments
  
Lago Vista Airport 512-267-5259
[web site]
[email]
Aviation fuel, Aircraft parking (ramp or tiedown), Hangars, Hangar leasing / sales, Flight training, Aircraft maintenance, Courtesy transportation

More info about Lago Vista Airport
independent
100LL
SS $3.89 
 Updated 03-Jul-2018
 
   1 read write
SS=Self service
Update Fuel Prices
 

Would you like to see your business listed on this page?

 If your business provides an interesting product or service to pilots, flight crews, aircraft, or users of the Lago Vista TX - Rusty Allen Airport, you should consider listing it here.  To start the listing process, click on the button below
 
Add a business
 

Other Pages about Lago Vista TX - Rusty Allen Airport

www.raapoa.com
 
Update a link
 
Copyright © AirNav, LLC. All rights reserved. Privacy Policy  Contact